Weather Roundup
Issued by NWS Springfield, MO

Home | Current Version | Previous Version | Text Only | Print | Product List | Glossary On
Versions: 1 2 3 4 5 6 7 8 9 10 11 12 13 14 15 16 17 18 19 20 21 22 23 24 25 26 27 28 29 30 31 32 33 34 35 36 37 38 39 40 41 42 43 44 45 46 47 48 49 50
000
NZUS99 KSGF 080659
HRRSGF

HOURLY WEATHER
NATIONAL WEATHER SERVICE SPRINGFIELD MO
200 AM CDT WED JUL 08 2015

......SGF CWA......

CITY           SKY/WX    TMP DP  RH WIND       PRES   REMARKS
SPRINGFIELD    RAIN      69  68  96 E3        29.99F VSB 3/4
JOPLIN         LGT RAIN  66  65  96 NE5       29.99F FOG
WEST PLAINS    CLOUDY    72  70  93 S5        30.05F
ROLLA          LGT RAIN  63  63 100 E8        30.02F FOG
OSAGE BEACH    CLOUDY    64  63  94 E7        30.02F

......SURROUNDING SGF CWA......

CITY           SKY/WX    TMP DP  RH WIND       PRES   REMARKS
CHANUTE        LGT RAIN  64  63  96 NE6       30.00F FOG
PARSONS        CLOUDY    65  64  97 VRB3      29.99F FOG
COFFEYVILLE    CLOUDY    65  65 100 NE8       29.97F FOG
EMPORIA        LGT RAIN  63  61  93 NE6       30.03F FOG
GROVE OK       RAIN      68  68 100 CALM      29.98F
SILOAM SPRINGS CLOUDY    70  66  88 CALM      29.99F
HARRISON AR    MOCLDY    70  69  97 SE8       30.02F
NEAR YELLVILLE CLOUDY    72  66  83 S3        29.99F

......KANSAS AND MISSOURI......

CITY           SKY/WX    TMP DP  RH WIND       PRES   REMARKS
KANSAS CTY INT DRIZZLE   65  60  84 E7        30.05F
DOWNTOWN KC    LGT RAIN  66  63  90 CALM      30.04F
COLUMBIA       LGT RAIN  65  63  93 E7        30.04F FOG
SEDALIA        LGT RAIN  64  61  90 E7        30.05F FOG
ST JOSEPH      CLOUDY    65  57  75 E6        30.05F
ST LOUIS       CLOUDY    66  61  84 SE9       30.06S
SPIRIT OF STL  CLOUDY    65  63  93 E6        30.05S
KIRKSVILLE     CLOUDY    64  59  83 NE5       30.07F
WICHITA        CLOUDY    63  60  90 NE8       30.01F FOG
TOPEKA         CLOUDY    66  62  87 E5        30.04F
OLATHE         LGT RAIN  63  62  97 NE6       30.04F FOG

......TENNESSEE......

CITY           SKY/WX    TMP DP  RH WIND       PRES   REMARKS
MEMPHIS        MOCLDY    80  73  79 S9        30.04F
NASHVILLE      CLOUDY    71  71 100 S5        30.09F

......ARKANSAS.......

CITY           SKY/WX    TMP DP  RH WIND       PRES   REMARKS
FAYETTEVILLE   CLOUDY    70  69  97 S6        29.98F
FT SMITH       MOCLDY    73  70  90 E7        29.96F
LITTLE ROCK    MOCLDY    76  70  82 CALM      30.01F

......OKLAHOMA.......

CITY           SKY/WX    TMP DP  RH WIND       PRES   REMARKS
TULSA          LGT RAIN  67  66  97 NE8       29.92F FOG
PONCA CITY     RAIN      64  62  93 NE9       29.96F FOG
MCALESTER      CLOUDY    75  72  90 S7        29.94S
OKLAHOMA CITY  CLOUDY    67  66  97 N9        29.93F FOG

......IOWA............

CITY           SKY/WX    TMP DP  RH WIND       PRES   REMARKS
DES MOINES     MOCLDY    60  51  72 E6        30.09F
QUAD CITIES    CLOUDY    60  56  86 E8        30.11R

......ILLINOIS........

CITY           SKY/WX    TMP DP  RH WIND       PRES   REMARKS
QUINCY         LGT RAIN  66  63  90 E5        30.07S FOG
CHICAGO        MOCLDY    55  48  77 N7        30.10S



USA.gov is the U.S. government's official web portal to all federal, state and local government web resources and services.